Regional Weather Roundup
Issued by NWS Grand Forks, ND

Home | Current Version | Previous Version | Graphics & Text | Print | Product List | Glossary On
Versions: 1 2 3 4 5 6 7 8 9 10 11 12 13 14 15 16 17 18 19 20 21 22 23 24 25 26 27 28 29 30 31 32 33 34 35 36 37 38 39 40 41 42 43 44 45 46 47 48 49 50
780
ASUS43 KFGF 191110
RWRFGF
PRAIRIE TO PINES  WEATHER ROUNDUP
NATIONAL WEATHER SERVICE EASTERN NORTH DAKOTA/GRAND FORKS ND
500 AM CST SUN FEB 19 2017

 **SATELLITE DATA USED TO AUGMENT SKY COVER AT AUTOMATED STATIONS**
 *****  WEATHER ACROSS EASTERN NORTH DAKOTA  *****

CITY           SKY/WX    TMP DP  RH WIND       PRES   REMARKS
GRAND FORKS    FAIR      35  29  78 E10       29.80F
GRAND FRKS AFB FAIR      33  31  93 E7        29.80F
DEVILS LAKE    CLOUDY    35  30  82 E21       29.73F WCI  24
FARGO          FAIR      38  35  89 E9        29.78F
WAHPETON ARPT  FAIR      36  32  87 SE9       29.79S
$$

 ***** WEATHER ACROSS CENTRAL AND WESTERN NORTH DAKOTA  *****

CITY           SKY/WX    TMP DP  RH WIND       PRES   REMARKS
BISMARCK       FAIR      35  32  88 E8        29.62F
MINOT          FAIR      32  29  88 E9        29.65F WCI  24
JAMESTOWN      FAIR      35  34  96 E9        29.69F
MINOT AFB      FAIR      31  28  90 E14       29.65F WCI  21
GARRISON         N/A     33  31  92 E12       29.61F WCI  24
WILLISTON      FAIR      33  30  88 E8        29.60F
DICKINSON      FOG       29  28  96 E8        29.53F VSB 1/4 WCI  21
HETTINGER      FAIR      31  29  92 CALM      29.56R
$$

 *****  OTHER AIRPORT OBSERVATIONS IN OUR AREA  *****

CITY           SKY/WX    TMP DP  RH WIND       PRES   REMARKS
WALHALLA       NOT AVBL
GRAFTON AIRPOR FAIR      34  32  93 E9        29.84F
VALLEY CITY AR PTSUNNY   36  36 100 SE14      29.75S
CANDO          NOT AVBL
CAVALIER APRT  PTSUNNY   32  32 100 E6        29.84S
GWINNER        FAIR      36  36 100 E7        29.74S
SHEYENNE NWR     N/A     34  34  99 E7        29.95S
ROLLA          FAIR      32  32 100 E13       29.75F WCI  22
 ***** THE ABOVE OBSERVATIONS ARE NON NWS ARE NOT QUALITY
       CONTROLLED AND MAY MIS-REPORT RAIN FOR SNOW...
$$

  *****  WEATHER ACROSS NORTHERN MINNESOTA  *****

CITY           SKY/WX    TMP DP  RH WIND       PRES   REMARKS
FLAG ISLAND    CLOUDY    28  27  93 CALM      29.88F
WARROAD        MOCLDY    30  27  86 E6        29.89  WCI  24
ROSEAU         CLOUDY    34  28  80 E7        29.88S
HALLOCK        FAIR      36  32  87 E10       29.84F
THF RVR FALLS  FAIR      34  30  85 E12       29.85S
BAUDETTE       CLOUDY    31  28  89 E3        29.88S
WASKISH        CLOUDY    32  30  93 E3        29.88S
CROOKSTON      FAIR      36  34  93 E13       29.83S
GREENBUSH NDAW   N/A     34  30  86 E8          N/A
$$
  *****  WEATHER ACROSS CENTRAL AND WEST MINNESOTA  *****

CITY           SKY/WX    TMP DP  RH WIND       PRES   REMARKS
FOSSTON        FAIR      32  30  93 E9        29.84F WCI  24
BEMIDJI        FAIR      29  28  99 SE5       29.87S WCI  23
PARK RAPIDS    FAIR      33  29  85 E5        29.86R
ELBOW LAKE     FAIR      39  37  90 SE10      29.81S
WADENA         FAIR      32  30  93 E5        29.85S FOG
DETROIT LAKES  FAIR      37  34  87 SE5       29.83S
MOORHEAD       FAIR      37  34  87 E7        29.80S
FERGUS FALLS   FAIR      43  36  75 SE9       29.84S
MORRIS MN      FAIR      36  36 100 SE10      29.81R
STAPLES        FAIR      32  32 100 E3        29.87R FOG
$$
  *****  WEATHER ELSEWHERE ACROSS MINNESOTA  *****

CITY           SKY/WX    TMP DP  RH WIND       PRES   REMARKS
DULUTH         FAIR      31  28  89 NE6       29.90R
INTRNTL FALLS  CLOUDY    30  28  92 CALM      29.90R
ELY            FAIR      28  27  93 CALM      29.91R
CLOQUET        FAIR      30  27  86 CALM      29.91S
WHEATON        FAIR      34  32  93 SE10      29.81S
BRAINERD       FAIR      27  26  96 CALM      29.89R FOG
HIBBING        MOCLDY    27  27 100 CALM      29.90R
ALEXANDRIA     FAIR      38  35  89 SE8       29.85R
SAINT CLOUD    FAIR      29  29 100 CALM      29.89R
MINNEAPOLIS    FAIR      33  30  88 E5        29.91S
$$

  *****  WEATHER ACROSS SOUTH DAKOTA  *****

CITY           SKY/WX    TMP DP  RH WIND       PRES   REMARKS
SIOUX FALLS    FAIR      40  36  86 SE5       29.81S
BROOKINGS      FAIR      39  35  86 SE12      29.79
WATERTOWN      FAIR      40  35  83 SE13      29.76S
HURON          FAIR      39  34  82 SE10      29.73S
SISSETON         N/A     35  34  96 S12       29.77S
ABERDEEN       FAIR      39  33  79 S12       29.72R
MITCHELL       FAIR      37  33  85 SE9       29.75F
PIERRE         FAIR      40  32  73 SE8       29.63F
MOBRIDGE       FAIR      39  31  72 SE13      29.60S
RAPID CITY     FAIR      39  30  70 SE5       29.57S
$$

  *****  SOME WEATHER IN NEARBY STATES *****

CITY           SKY/WX    TMP DP  RH WIND       PRES   REMARKS
GLASGOW MT     MOCLDY    33  30  88 SE8       29.50R
GREAT FALLS MT FAIR      47  30  51 S15G24    29.34S
CHEYENNE WY    FAIR      36  25  64 W12       29.67R
SCOTTSBLUFF NE FAIR      34  27  75 NE5       29.63S
OMAHA NE       FAIR      43  33  68 SE8       29.86R
DES MOINES IA  FAIR      44  34  67 VRB5      29.91F
DAVENPORT IA   FAIR      31  30  96 CALM      29.95R
CHICAGO IL     FAIR      37  33  85 SW5       29.94R
EAU CLAIRE WI  FAIR      28  27  96 CALM      29.92S FOG
LA CROSSE WI   FAIR      28  26  92 SE6       29.95R WCI  22
$$

  *****  SOME NATIONAL WEATHER *****

CITY           SKY/WX    TMP DP  RH WIND       PRES   REMARKS
LA GUARDIA NY  MOCLDY    57  34  41 W13       29.73R
RALEIGH NC     FAIR      46  42  86 SW5       29.91R
ATLANTA GA     MOCLDY    52  52 100 NW5       30.02R
NEW ORLEANS LA FOG       58  58 100 CALM      29.98R VSB 1/8
OKLAHOMA CITY  CLOUDY    54  54 100 SE13      29.84S FOG
ALBUQUERQUE NM LGT RAIN  42  37  82 S13       29.85R
SALT LAKE CITY LGT RAIN  46  38  73 SE9       29.61R
LOS ANGELES CA FAIR      51  50  96 NE5       29.79R
BOISE ID       CLOUDY    43  38  82 SE9       29.52R
SEATTLE WA     CLOUDY    44  42  93 CALM      29.43S
$$

*** WEATHER ACROSS MANITOBA...SASKATCHEWAN AND ONTARIO ***
                ***ONTARIO***

CITY           SKY/WX    TMP DP  RH WIND       PRES   REMARKS
GERALDTON      CLOUDY    34  28  80 NW9       29.83R
THUNDER BAY    MOCLDY    32  27  80 SW5       29.90R
SIOUX LOOKOUT  PTCLDY    23  21  93 CALM      29.89R
TORONTO        CLOUDY    39  32  75 W8        29.79R
BIG TROUT LK   CLOUDY    21  19  93 CALM      29.90R
PICKLE LAKE    CLOUDY    28  23  80 NW3       29.87
DRYDEN         CLEAR     28  27  93 NW3       29.88R
KENORA         CLOUDY    30  27  86 SE3       29.88R
$$
                *** MANITOBA***

CITY           SKY/WX    TMP DP  RH WIND       PRES   REMARKS
BRANDON        MOCLDY    30  27  86 E14       29.79F WCI  20
DAUPHIN        CLEAR     25  23  93 E7        29.85R WCI  17
ISLAND LAKE    FLURRIES  12   9  85 W5        29.94R WCI   4
PILOT MOUND      N/A     34  28  80 E15         N/A  WCI  24
THE PAS        CLOUDY    25  23  93 E6        29.90R WCI  18
THOMPSON       CLOUDY    18  16  93 E2        29.93S
WINNIPEG       MOCLDY    25  23  93 E8        29.87F WCI  16
LYNN LAKE      CLOUDY    18  16  93 N2        29.89S
CHURCHILL      CLOUDY    -4  -8  84 E8        30.03R WCI -19
GILLAM         CLOUDY    14   9  79 N2        29.96R
$$
                ***SASKATCHEWAN***

CITY           SKY/WX    TMP DP  RH WIND       PRES   REMARKS
ESTEVAN        MOCLDY    30  28  93 E15       29.65F WCI  19
KINDERSLEY     LGT RAIN  34  30  86 E28G36    29.42F WCI  20
LLOYDMINSTER   LGT SNOW  32  32 100 E25G33    29.47F WCI  19
PRINCE ALBERT  CLOUDY    28  23  80 E9        29.76R WCI  20
REGINA         MOCLDY    34  27  75 E22G30    29.62F WCI  22
YORKTON        CLOUDY    30  27  86 E12       29.76F WCI  21
N. BATTLEFORD  CLOUDY    34  30  86 E28G33    29.58F WCI  20
LA RONGE       MOCLDY    21  16  79 E7        29.83S WCI  13
SASKATOON      CLOUDY    34  28  80 E10       29.66F
SWIFT CURRENT  CLOUDY    32  30  93 E15G21    29.46F WCI  22
$$
NOTE: THESE ARE AUTOMATED STATIONS WITH LIMITED QUALITY CONTROL
      "FAIR" INDICATES FEW OR NO CLOUDS BELOW 12,000 FEET WITH NO
      SIGNIFICANT WEATHER AND/OR OBSTRUCTIONS TO VISIBILITY.
      SKY/WX - SKY CONDITION AND SIGNIFICANT WEATHER.
      TMP - AIR TEMPERATURE.    DP   - DEWPOINT TEMPERATURE.
      RH  - RELATIVE HUMIDITY.  PRES - PRESSURE.
      HX  - HEAT INDEX.         WCI  - WIND CHILL INDEX.
$




USA.gov is the U.S. government's official web portal to all federal, state and local government web resources and services.